AFL617 UDYZ-URKK

Flight info

Callsign AFL617
Flight time 1h 17m
Altitude 34000
Route TIBLO T918 OGEVI DCT IBERI DCT BANUT A277 LAMET B950 SIBAN
Aircraft A321/M-SADE2E3FGHIJ1RWY/LB1U1

Departure

Time 2026-05-09 14:35
Airport Zvartnots International Airport (UDYZ)

Arrival

Time 2026-05-09 15:52
Airport Krasnodar Pashkovsky International Airport (URKK)
Time Latitude Longitude Altitude Speed Heading
2026-05-09 14:05 40.15095 44.40013 2841 ft 0 kts 360°
2026-05-09 14:25 40.15074 44.40013 2840 ft 4 kts 359°
2026-05-09 14:25 40.15047 44.40015 2841 ft 4 kts 356°
2026-05-09 14:25 40.15020 44.40018 2839 ft 3 kts 349°
2026-05-09 14:26 40.14995 44.40027 2840 ft 3 kts 329°
2026-05-09 14:26 40.14980 44.40046 2839 ft 2 kts 273°
2026-05-09 14:26 40.14979 44.40049 2839 ft 0 kts 270°
2026-05-09 14:28 40.14979 44.40048 2839 ft 1 kts 270°
2026-05-09 14:28 40.14979 44.39989 2840 ft 14 kts 270°
2026-05-09 14:28 40.14979 44.39823 2841 ft 19 kts 269°
2026-05-09 14:28 40.14978 44.39654 2839 ft 19 kts 270°
2026-05-09 14:29 40.14976 44.39491 2839 ft 17 kts 269°
2026-05-09 14:29 40.14974 44.39339 2839 ft 16 kts 269°
2026-05-09 14:29 40.14974 44.39180 2839 ft 20 kts 269°
2026-05-09 14:29 40.14972 44.38992 2839 ft 20 kts 269°
2026-05-09 14:30 40.14971 44.38812 2839 ft 19 kts 269°
2026-05-09 14:30 40.14971 44.38644 2839 ft 18 kts 269°
2026-05-09 14:30 40.14972 44.38489 2840 ft 16 kts 271°
2026-05-09 14:30 40.14944 44.38358 2840 ft 15 kts 223°
2026-05-09 14:31 40.14864 44.38292 2840 ft 13 kts 210°
2026-05-09 14:31 40.14794 44.38243 2841 ft 10 kts 202°
2026-05-09 14:31 40.14732 44.38231 2841 ft 8 kts 177°
2026-05-09 14:31 40.14720 44.38247 2841 ft 4 kts 95°
2026-05-09 14:32 40.14720 44.38261 2841 ft 0 kts 90°
2026-05-09 14:33 40.14720 44.38262 2841 ft 1 kts 90°
2026-05-09 14:34 40.14721 44.38451 2842 ft 54 kts 89°
2026-05-09 14:34 40.14725 44.39220 2838 ft 115 kts 89°
2026-05-09 14:34 40.14732 44.40488 2842 ft 161 kts 89°
2026-05-09 14:34 40.14733 44.42087 3053 ft 181 kts 89°
2026-05-09 14:35 40.14730 44.43731 3671 ft 181 kts 89°
2026-05-09 14:35 40.14526 44.45362 4118 ft 190 kts 118°
2026-05-09 14:35 40.13442 44.46447 4223 ft 211 kts 167°
2026-05-09 14:35 40.11966 44.46204 4409 ft 227 kts 208°
2026-05-09 14:36 40.10893 44.44642 4550 ft 246 kts 249°
2026-05-09 14:36 40.10791 44.42351 4802 ft 267 kts 288°
2026-05-09 14:36 40.11648 44.40174 5403 ft 274 kts 306°
2026-05-09 14:36 40.12735 44.38111 6183 ft 277 kts 305°
2026-05-09 14:37 40.13830 44.36029 6959 ft 279 kts 305°
2026-05-09 14:37 40.14936 44.33931 7728 ft 281 kts 305°
2026-05-09 14:37 40.16052 44.31820 8505 ft 283 kts 305°
2026-05-09 14:37 40.17178 44.29695 9287 ft 286 kts 305°
2026-05-09 14:38 40.18313 44.27554 10056 ft 288 kts 305°
2026-05-09 14:38 40.19486 44.25345 10404 ft 306 kts 305°
2026-05-09 14:38 40.20745 44.22966 10547 ft 329 kts 305°
2026-05-09 14:38 40.22073 44.20452 10975 ft 340 kts 305°
2026-05-09 14:39 40.23421 44.17896 11620 ft 343 kts 305°
2026-05-09 14:39 40.24783 44.15310 12313 ft 346 kts 304°
2026-05-09 14:39 40.26153 44.12710 13006 ft 349 kts 304°
2026-05-09 14:39 40.27539 44.10082 13690 ft 352 kts 304°
2026-05-09 14:40 40.28935 44.07440 14311 ft 355 kts 304°
2026-05-09 14:40 40.30000 44.05424 14769 ft 357 kts 304°
2026-05-09 14:40 40.31419 44.02735 15382 ft 360 kts 304°
2026-05-09 14:40 40.32848 44.00016 15994 ft 363 kts 304°
2026-05-09 14:41 40.34284 43.97277 16579 ft 366 kts 304°
2026-05-09 14:41 40.35741 43.94517 17169 ft 370 kts 306°
2026-05-09 14:41 40.37497 43.92041 17739 ft 374 kts 319°
2026-05-09 14:41 40.39655 43.90108 18295 ft 378 kts 331°
2026-05-09 14:42 40.42113 43.88841 18795 ft 383 kts 344°
2026-05-09 14:42 40.44762 43.88301 19284 ft 388 kts 353°
2026-05-09 14:42 40.47457 43.87982 19773 ft 390 kts 353°
2026-05-09 14:42 40.50171 43.87648 20268 ft 393 kts 353°
2026-05-09 14:43 40.52902 43.87300 20731 ft 396 kts 353°
2026-05-09 14:43 40.55651 43.86946 21213 ft 398 kts 353°
2026-05-09 14:43 40.58421 43.86591 21681 ft 401 kts 352°
2026-05-09 14:43 40.61205 43.86235 22162 ft 404 kts 352°
2026-05-09 14:44 40.63062 43.85996 22469 ft 406 kts 352°
2026-05-09 14:44 40.66837 43.85512 23087 ft 409 kts 352°
2026-05-09 14:44 40.68720 43.85269 23370 ft 411 kts 352°
2026-05-09 14:44 40.71574 43.84900 23828 ft 414 kts 352°
2026-05-09 14:45 40.74445 43.84522 24197 ft 416 kts 352°
2026-05-09 14:45 40.77331 43.84116 24595 ft 417 kts 351°
2026-05-09 14:45 40.80220 43.83688 24990 ft 419 kts 351°
2026-05-09 14:45 40.83124 43.83250 25375 ft 421 kts 351°
2026-05-09 14:46 40.86038 43.82807 25759 ft 423 kts 351°
2026-05-09 14:46 40.88966 43.82362 26139 ft 424 kts 351°
2026-05-09 14:46 40.91904 43.81917 26513 ft 426 kts 351°
2026-05-09 14:46 40.94861 43.81472 26882 ft 428 kts 351°
2026-05-09 14:47 40.97828 43.81030 27257 ft 430 kts 351°
2026-05-09 14:47 41.00809 43.80585 27611 ft 432 kts 351°
2026-05-09 14:47 41.03806 43.80140 27982 ft 434 kts 351°
2026-05-09 14:47 41.06808 43.79659 28305 ft 435 kts 348°
2026-05-09 14:48 41.09724 43.78634 28627 ft 434 kts 337°
2026-05-09 14:48 41.12447 43.76925 28947 ft 434 kts 327°
2026-05-09 14:48 41.14895 43.74594 29245 ft 433 kts 317°
2026-05-09 14:48 41.16992 43.71723 29545 ft 434 kts 307°
2026-05-09 14:49 41.18742 43.68455 29840 ft 435 kts 303°
2026-05-09 14:49 41.20446 43.65126 30145 ft 437 kts 303°
2026-05-09 14:49 41.22154 43.61779 30413 ft 439 kts 303°
2026-05-09 14:49 41.23870 43.58413 30689 ft 440 kts 303°
2026-05-09 14:50 41.25582 43.55052 31077 ft 438 kts 303°
2026-05-09 14:50 41.27287 43.51702 31505 ft 436 kts 303°
2026-05-09 14:50 41.28980 43.48372 31925 ft 434 kts 303°
2026-05-09 14:50 41.30666 43.45057 32350 ft 431 kts 303°
2026-05-09 14:51 41.32344 43.41755 32771 ft 429 kts 303°
2026-05-09 14:51 41.34010 43.38476 33199 ft 427 kts 303°
2026-05-09 14:51 41.35668 43.35207 33607 ft 425 kts 303°
2026-05-09 14:51 41.37318 43.31949 34010 ft 423 kts 303°
2026-05-09 14:52 41.38960 43.28708 34377 ft 422 kts 303°
2026-05-09 14:52 41.40597 43.25468 34666 ft 421 kts 303°
2026-05-09 14:52 41.42227 43.22231 34941 ft 421 kts 303°
2026-05-09 14:52 41.43858 43.18992 35183 ft 421 kts 303°
2026-05-09 14:53 41.45491 43.15749 35440 ft 421 kts 303°
2026-05-09 14:53 41.47126 43.12502 35676 ft 421 kts 303°
2026-05-09 14:53 41.48758 43.09260 35939 ft 421 kts 303°
2026-05-09 14:53 41.50394 43.06012 36112 ft 422 kts 303°
2026-05-09 14:54 41.53647 42.99536 36152 ft 418 kts 303°
2026-05-09 14:54 41.56867 42.93076 36152 ft 418 kts 303°
2026-05-09 14:55 41.60090 42.86612 36150 ft 418 kts 303°
2026-05-09 14:55 41.63311 42.80141 36151 ft 418 kts 303°
2026-05-09 14:56 41.66529 42.73663 36145 ft 418 kts 303°
2026-05-09 14:56 41.69748 42.67176 36145 ft 419 kts 303°
2026-05-09 14:57 41.72965 42.60676 36140 ft 419 kts 303°
2026-05-09 14:57 41.76161 42.54210 36134 ft 419 kts 303°
2026-05-09 14:58 41.79368 42.47695 36126 ft 419 kts 302°
2026-05-09 14:58 41.82579 42.41176 36118 ft 419 kts 303°
2026-05-09 14:59 41.85784 42.34640 36107 ft 420 kts 302°
2026-05-09 14:59 41.88983 42.28097 36096 ft 419 kts 302°
2026-05-09 15:00 41.92185 42.21546 36088 ft 419 kts 302°
2026-05-09 15:00 41.95379 42.14991 36085 ft 419 kts 302°
2026-05-09 15:01 42.00163 42.05155 36085 ft 419 kts 302°
2026-05-09 15:02 42.03347 41.98588 36080 ft 419 kts 302°
2026-05-09 15:02 42.06532 41.92010 36077 ft 420 kts 302°
2026-05-09 15:03 42.09715 41.85426 36076 ft 420 kts 302°
2026-05-09 15:03 42.12888 41.78827 36073 ft 420 kts 302°
2026-05-09 15:04 42.16065 41.72221 36071 ft 420 kts 302°
2026-05-09 15:06 42.28943 41.45878 36076 ft 421 kts 303°
2026-05-09 15:06 42.32155 41.39270 36066 ft 421 kts 303°
2026-05-09 15:07 42.34495 41.34447 36075 ft 421 kts 303°
2026-05-09 15:07 42.37654 41.27946 36061 ft 406 kts 303°
2026-05-09 15:08 42.40679 41.21686 36086 ft 390 kts 303°
2026-05-09 15:08 42.43578 41.15659 36103 ft 378 kts 303°
2026-05-09 15:08 42.45020 41.12656 36082 ft 384 kts 303°
2026-05-09 15:10 42.57328 40.86969 36087 ft 422 kts 303°
2026-05-09 15:11 42.60519 40.80279 36089 ft 422 kts 303°
2026-05-09 15:11 42.63705 40.73575 36088 ft 423 kts 302°
2026-05-09 15:12 42.66893 40.66859 36090 ft 423 kts 303°
2026-05-09 15:12 42.70063 40.60183 36097 ft 424 kts 303°
2026-05-09 15:13 42.73251 40.53444 36099 ft 424 kts 302°
2026-05-09 15:13 42.76427 40.46691 36098 ft 424 kts 302°
2026-05-09 15:14 42.79606 40.39929 36097 ft 424 kts 302°
2026-05-09 15:14 42.82779 40.33167 36099 ft 424 kts 302°
2026-05-09 15:15 42.85438 40.27486 36100 ft 424 kts 302°
2026-05-09 15:15 42.89116 40.19606 36098 ft 424 kts 302°
2026-05-09 15:16 42.92281 40.12817 36099 ft 424 kts 302°
2026-05-09 15:16 42.95445 40.06016 36101 ft 424 kts 302°
2026-05-09 15:17 42.98598 39.99206 36096 ft 424 kts 302°
2026-05-09 15:17 43.01608 39.92267 36092 ft 424 kts 299°
2026-05-09 15:18 43.04431 39.85177 36093 ft 425 kts 298°
2026-05-09 15:18 43.07241 39.78075 36093 ft 425 kts 299°
2026-05-09 15:19 43.10106 39.70985 36094 ft 425 kts 299°
2026-05-09 15:19 43.12977 39.63915 36095 ft 426 kts 299°
2026-05-09 15:20 43.17268 39.53258 36096 ft 426 kts 299°
2026-05-09 15:21 43.20126 39.46144 36100 ft 426 kts 299°
2026-05-09 15:21 43.22974 39.39017 36099 ft 426 kts 299°
2026-05-09 15:22 43.25827 39.31885 36100 ft 427 kts 299°
2026-05-09 15:22 43.28678 39.24746 36100 ft 424 kts 299°
2026-05-09 15:23 43.31477 39.17748 36094 ft 411 kts 302°
2026-05-09 15:23 43.33160 39.14661 36098 ft 400 kts 313°
2026-05-09 15:23 43.35219 39.12112 36099 ft 398 kts 324°
2026-05-09 15:24 43.40194 39.08845 36100 ft 400 kts 345°
2026-05-09 15:24 43.45735 39.08018 36099 ft 402 kts 355°
2026-05-09 15:25 43.51326 39.07595 36104 ft 402 kts 355°
2026-05-09 15:25 43.56912 39.07146 36106 ft 402 kts 355°
2026-05-09 15:26 43.62507 39.06698 35867 ft 405 kts 355°
2026-05-09 15:26 43.65310 39.06481 35579 ft 401 kts 355°
2026-05-09 15:26 43.68123 39.06264 35339 ft 412 kts 355°
2026-05-09 15:26 43.71032 39.06042 35095 ft 423 kts 355°
2026-05-09 15:27 43.73986 39.05816 34829 ft 427 kts 355°
2026-05-09 15:27 43.76966 39.05582 34102 ft 431 kts 355°
2026-05-09 15:27 43.79983 39.05342 33236 ft 435 kts 355°
2026-05-09 15:27 43.82980 39.05107 32790 ft 429 kts 356°
2026-05-09 15:28 43.84954 39.04954 32431 ft 427 kts 356°
2026-05-09 15:28 43.87904 39.04723 31896 ft 424 kts 356°
2026-05-09 15:28 43.90838 39.04491 31361 ft 421 kts 356°
2026-05-09 15:28 43.93758 39.04260 30823 ft 419 kts 356°
2026-05-09 15:29 43.96655 39.04027 30290 ft 417 kts 356°
2026-05-09 15:29 43.99542 39.03794 29711 ft 414 kts 356°
2026-05-09 15:29 44.02400 39.03568 29200 ft 409 kts 356°
2026-05-09 15:29 44.05233 39.03344 28684 ft 406 kts 356°
2026-05-09 15:30 44.08040 39.03124 28178 ft 402 kts 356°
2026-05-09 15:30 44.10814 39.02908 27693 ft 398 kts 357°
2026-05-09 15:30 44.13564 39.02659 27202 ft 394 kts 353°
2026-05-09 15:30 44.16242 39.01954 26735 ft 390 kts 347°
2026-05-09 15:31 44.18879 39.01108 26270 ft 387 kts 347°
2026-05-09 15:31 44.21488 39.00268 25825 ft 383 kts 347°
2026-05-09 15:31 44.24077 38.99439 25382 ft 380 kts 347°
2026-05-09 15:31 44.26641 38.98620 24952 ft 376 kts 347°
2026-05-09 15:32 44.29182 38.97807 24529 ft 373 kts 347°
2026-05-09 15:32 44.31705 38.97004 24106 ft 371 kts 347°
2026-05-09 15:32 44.34211 38.96198 23668 ft 369 kts 347°
2026-05-09 15:32 44.36691 38.95336 23191 ft 366 kts 346°
2026-05-09 15:33 44.39140 38.94432 22754 ft 362 kts 345°
2026-05-09 15:33 44.41554 38.93515 22326 ft 358 kts 345°
2026-05-09 15:33 44.43394 38.92811 22003 ft 356 kts 345°
2026-05-09 15:33 44.45774 38.91903 21569 ft 353 kts 345°
2026-05-09 15:34 44.48133 38.91014 21141 ft 351 kts 345°
2026-05-09 15:34 44.50487 38.90140 20696 ft 348 kts 345°
2026-05-09 15:34 44.52824 38.89278 20275 ft 346 kts 345°
2026-05-09 15:34 44.55146 38.88423 19856 ft 344 kts 345°
2026-05-09 15:35 44.57458 38.87572 19448 ft 343 kts 345°
2026-05-09 15:35 44.59761 38.86720 19009 ft 341 kts 345°
2026-05-09 15:35 44.62055 38.85868 18599 ft 340 kts 345°
2026-05-09 15:35 44.64338 38.85016 18152 ft 339 kts 344°
2026-05-09 15:36 44.66615 38.84166 17735 ft 337 kts 345°
2026-05-09 15:36 44.68873 38.83322 17322 ft 335 kts 345°
2026-05-09 15:36 44.71114 38.82484 16925 ft 332 kts 345°
2026-05-09 15:36 44.73356 38.81745 16527 ft 330 kts 352°
2026-05-09 15:37 44.75642 38.81706 16130 ft 328 kts
2026-05-09 15:37 44.77849 38.82463 15745 ft 327 kts 21°
2026-05-09 15:37 44.79847 38.83954 15342 ft 325 kts 36°
2026-05-09 15:37 44.81526 38.86067 14945 ft 323 kts 47°
2026-05-09 15:38 44.83072 38.88358 14554 ft 323 kts 47°
2026-05-09 15:38 44.84622 38.90642 14156 ft 322 kts 46°
2026-05-09 15:38 44.85670 38.92181 13883 ft 322 kts 46°
2026-05-09 15:38 44.85963 38.92610 13802 ft 322 kts 46°
2026-05-09 15:39 44.87386 38.94811 13377 ft 310 kts 54°
2026-05-09 15:39 44.88508 38.97323 13010 ft 302 kts 65°
2026-05-09 15:39 44.89320 39.00063 12645 ft 303 kts 69°
2026-05-09 15:39 44.90090 39.02821 12282 ft 302 kts 69°
2026-05-09 15:40 44.90859 39.05562 11912 ft 300 kts 69°
2026-05-09 15:40 44.91623 39.08293 11556 ft 300 kts 70°
2026-05-09 15:40 44.92385 39.11020 11169 ft 298 kts 70°
2026-05-09 15:40 44.93145 39.13741 10796 ft 297 kts 70°
2026-05-09 15:41 44.93883 39.16453 10416 ft 295 kts 74°
2026-05-09 15:41 44.94202 39.19294 10020 ft 293 kts 87°
2026-05-09 15:41 44.94338 39.22166 9543 ft 294 kts 88°
2026-05-09 15:41 44.94458 39.25042 9091 ft 294 kts 88°
2026-05-09 15:42 44.94575 39.27929 8628 ft 295 kts 88°
2026-05-09 15:42 44.94691 39.30816 8175 ft 295 kts 88°
2026-05-09 15:42 44.94806 39.33709 7727 ft 295 kts 88°
2026-05-09 15:42 44.94919 39.36595 7316 ft 294 kts 88°
2026-05-09 15:43 44.95030 39.39457 6959 ft 291 kts 88°
2026-05-09 15:43 44.95140 39.42297 6592 ft 288 kts 88°
2026-05-09 15:43 44.95247 39.45108 6222 ft 286 kts 88°
2026-05-09 15:43 44.95350 39.47897 5842 ft 283 kts 88°
2026-05-09 15:44 44.95546 39.50644 5488 ft 281 kts 76°
2026-05-09 15:44 44.96357 39.53085 5352 ft 273 kts 54°
2026-05-09 15:44 44.97747 39.54880 5239 ft 273 kts 31°
2026-05-09 15:44 44.99533 39.55766 5112 ft 275 kts
2026-05-09 15:45 45.01427 39.55590 4991 ft 276 kts 344°
2026-05-09 15:45 45.03181 39.54485 4861 ft 276 kts 333°
2026-05-09 15:45 45.04886 39.53237 4741 ft 276 kts 333°
2026-05-09 15:45 45.06590 39.51998 4599 ft 275 kts 333°
2026-05-09 15:46 45.08276 39.50716 4277 ft 273 kts 326°
2026-05-09 15:46 45.09758 39.49141 4190 ft 260 kts 322°
2026-05-09 15:46 45.11165 39.47627 4103 ft 248 kts 323°
2026-05-09 15:46 45.12499 39.46199 4001 ft 233 kts 323°
2026-05-09 15:47 45.13756 39.44855 3891 ft 219 kts 323°
2026-05-09 15:47 45.14804 39.43445 3792 ft 201 kts 302°
2026-05-09 15:47 45.15173 39.41599 3696 ft 196 kts 269°
2026-05-09 15:47 45.14751 39.39799 3333 ft 197 kts 234°
2026-05-09 15:48 45.13915 39.38267 2947 ft 195 kts 233°
2026-05-09 15:48 45.13107 39.36753 2693 ft 191 kts 233°
2026-05-09 15:48 45.12303 39.35254 2448 ft 191 kts 233°
2026-05-09 15:48 45.11501 39.33764 2216 ft 190 kts 233°
2026-05-09 15:49 45.10702 39.32281 1992 ft 189 kts 233°
2026-05-09 15:49 45.09906 39.30805 1772 ft 189 kts 233°
2026-05-09 15:49 45.09111 39.29332 1545 ft 188 kts 233°
2026-05-09 15:49 45.08319 39.27864 1322 ft 186 kts 233°
2026-05-09 15:50 45.07589 39.26513 1078 ft 162 kts 234°
2026-05-09 15:50 45.06933 39.25296 918 ft 151 kts 233°
2026-05-09 15:50 45.06307 39.24138 754 ft 146 kts 232°
2026-05-09 15:50 45.05694 39.23005 577 ft 144 kts 232°
2026-05-09 15:51 45.05093 39.21884 425 ft 143 kts 231°
2026-05-09 15:51 45.04490 39.20776 221 ft 142 kts 232°
2026-05-09 15:51 45.03894 39.19684 119 ft 135 kts 231°
2026-05-09 15:51 45.03413 39.18796 113 ft 86 kts 233°
2026-05-09 15:52 45.02941 39.17928 115 ft 46 kts 232°
2026-05-09 15:52 45.02769 39.17610 112 ft 29 kts 232°
2026-05-09 15:52 45.02657 39.17407 112 ft 19 kts 232°
2026-05-09 15:53 45.02664 39.17270 110 ft 16 kts 315°
2026-05-09 15:53 45.02760 39.17162 107 ft 18 kts 321°
2026-05-09 15:53 45.02860 39.17050 106 ft 18 kts 322°
2026-05-09 15:53 45.02975 39.16925 106 ft 25 kts 322°
2026-05-09 15:54 45.03124 39.16763 106 ft 25 kts 322°
2026-05-09 15:54 45.03260 39.16616 106 ft 24 kts 322°
2026-05-09 15:54 45.03394 39.16472 105 ft 24 kts 322°
2026-05-09 15:54 45.03526 39.16330 106 ft 24 kts 322°
2026-05-09 15:55 45.03655 39.16189 106 ft 23 kts 322°
2026-05-09 15:55 45.03738 39.16061 106 ft 16 kts 278°
2026-05-09 15:55 45.03738 39.15902 106 ft 18 kts 269°
2026-05-09 15:55 45.03736 39.15716 106 ft 20 kts 270°
2026-05-09 15:56 45.03759 39.15522 105 ft 20 kts 290°
2026-05-09 15:56 45.03812 39.15341 106 ft 20 kts 292°
2026-05-09 15:56 45.03815 39.15160 106 ft 19 kts 244°
2026-05-09 15:56 45.03752 39.14999 106 ft 19 kts 240°
2026-05-09 15:57 45.03689 39.14840 106 ft 18 kts 241°
2026-05-09 15:57 45.03627 39.14684 106 ft 18 kts 240°
2026-05-09 15:57 45.03566 39.14529 106 ft 18 kts 240°
2026-05-09 15:57 45.03506 39.14379 106 ft 15 kts 240°
2026-05-09 15:58 45.03456 39.14253 106 ft 14 kts 240°
2026-05-09 15:58 45.03428 39.14181 106 ft 5 kts 248°
2026-05-09 15:58 45.03437 39.14148 106 ft 3 kts 311°
2026-05-09 15:58 45.03451 39.14136 106 ft 2 kts 332°
2026-05-09 15:59 45.03465 39.14126 106 ft 1 kts 331°
2026-05-09 15:59 45.03467 39.14124 106 ft 0 kts 331°